Flag for Germany Weather past 2 weeks in Konstanz, Baden-Württemberg, Germany

Now
64 °F

Passing clouds.


Feels Like: 64 °F
Forecast: 47 / 69 °F
Wind: 2 mph from Southwest

Location: Konstanz

Current Time: Aug 22, 2014 at 11:58:33 AM

Latest Report: Aug 22, 2014 at 11:00 AM


Visibility: 28 mi

Pressure: 30.01 "Hg

Humidity: 53%

Dew point: 46 °F

Location of KonstanzLocation

Historic Weather in Konstanz — Graph

°F

Konstanz temperature yesterday

Maximum temperature yesterday: 69 °F (at 5:00 PM)
Minimum temperature yesterday: 54 °F (at 7:00 AM)
Average temperature yesterday: 61 °F

Past Weeks' High & Low Weather Summary

 TemperatureHumidityPressure
High83 °F (Aug 10, 6:00 PM)97% (Aug 17, 7:00 AM)30.21 "Hg (Aug 17, 7:00 AM)
Low48 °F (Aug 17, 7:00 AM)38% (Aug 21, 5:00 PM)29.66 "Hg (Aug 13, 1:00 PM)
Average63 °F73%29.96 "Hg
* Reported Aug 7 11:00 AM — Aug 22 11:00 AM, Konstanz, Weather by CustomWeather, © 2014

Note: Actual official high and low records may vary slightly from our data, if they occured in-between our weather recording intervals... More about our weather records

Advertising

Konstanz weather history for previous 24 hours

 ConditionsComfort  
Time TempWeatherWind HumidityBarometerVisibility
11:00 AM
Aug 22
64 °FPassing clouds.2 mph53%30.01 "Hg28 mi
10:00 AM59 °FOvercast.1 mph64%30.03 "Hg25 mi
9:00 AM56 °FScattered clouds.2 mph71%30.03 "Hg28 mi
8:00 AM54 °FPartly sunny.1 mph84%30.03 "Hg25 mi
7:00 AM52 °FPartly sunny.2 mph87%30.04 "Hg17 mi
6:00 AM53 °FPassing clouds.1 mph86%30.02 "Hg16 mi
5:00 AM54 °FOvercast.1 mph84%30.02 "Hg31 mi
4:00 AM54 °FOvercast.2 mph84%30.02 "Hg34 mi
3:00 AM55 °FOvercast.1 mph83%30.03 "Hg40 mi
2:00 AM55 °FPassing clouds.2 mph83%30.03 "Hg34 mi
1:00 AM55 °FPassing clouds.1 mph82%30.03 "Hg43 mi
12:00 AM56 °FPassing clouds.2 mph81%30.03 "Hg43 mi
11:00 PM
Aug 21
58 °FOvercast.2 mph75%30.02 "Hg43 mi
10:00 PM60 °FClear.2 mph64%30.01 "Hg37 mi
9:00 PM62 °FPassing clouds.2 mph59%30.00 "Hg40 mi
8:00 PM65 °FOvercast.1 mph50%29.98 "Hg43 mi
7:00 PM67 °FOvercast.1 mph46%29.97 "Hg43 mi
6:00 PM69 °FScattered clouds.2 mph39%29.97 "Hg43 mi
5:00 PM69 °FPartly sunny.3 mph38%29.98 "Hg28 mi
4:00 PM69 °FPartly sunny.2 mph45%29.98 "Hg28 mi
3:00 PM68 °FPartly sunny.2 mph45%30.01 "Hg28 mi
2:00 PM68 °FPartly sunny.2 mph47%30.02 "Hg28 mi
1:00 PM65 °FPartly sunny.1 mph53%30.04 "Hg28 mi
12:00 PM63 °FPartly sunny.2 mph60%30.05 "Hg28 mi
11:00 AM63 °FScattered clouds.2 mph64%30.06 "Hg28 mi
Weather by CustomWeather, © 2014

See weather overviewHow to use our weather pages